Back to catalog

KUIPER-00101

AliveCommunicationsLEO
NORAD 65947·PAYLOAD·🇺🇸 United States

Launched Oct 14, 2025 from Cape Canaveral Space Force Station

Loading…

Next Passes (next 24 hours)

TLE

FreshSource: CelesTrak SupGP

Epoch: Sep 15, 2026, 05:09 UTC

1 65947C 25228A   26258.21509259 -.00026267  00000+0 -34377-2 0  2584
2 65947  51.8967 242.4598 0000532  80.4338  85.2450 14.79966143    14

Track KUIPER-00101 in real time with AllMySat

Download on the App Store